Back to catalog

YAOGAN 1

AliveMilitarySSO
NORAD 29092·PAYLOAD·🇨🇳 China

Launched Apr 26, 2006 from Taiyuan Satellite Launch Center

Loading…

Next Passes (next 24 hours)

TLE

FreshSource: Space-Track

Epoch: Sep 14, 2026, 11:30 UTC

1 29092U 06015A   26257.47945416  .00000527  00000-0  63517-4 0  9996
2 29092  97.7445 276.3467 0001420  89.3651 270.7728 14.87852627103089

Track YAOGAN 1 in real time with AllMySat

Download on the App Store